BX2AEA-13 Weather Reports


Display with metric or nautical units.
time (UTC)temp
F
wind
direction
speed
MPH
gust
MPH
rain 1hr
in
rain 24hr
in
rain mn
in
humidity
%
barometer
mb
20260504081637 100 225 0.0 2.0 0.00 0.00 0.00 23 1008.5
20260504081050 100 270 0.0 2.0 0.00 0.00 0.00 23 1008.3
20260504080503 101 270 0.0 2.0 0.00 0.00 0.00 23 1008.1
20260504070126 103 315 0.0 1.0 0.00 0.00 0.00 24 1007.7
20260504050545 102 225 0.0 3.0 0.00 0.00 0.00 26 1008.7
20260504045958 102 315 0.0 3.0 0.00 0.00 0.00 26 1008.8
20260504045411 102 270 0.0 3.0 0.00 0.00 0.00 26 1008.7
20260504044824 102 225 0.0 2.0 0.00 0.00 0.00 26 1008.9
20260504044237 102 225 0.0 2.0 0.00 0.00 0.00 26 1008.9
20260504043650 101 270 0.0 3.0 0.00 0.00 0.00 26 1009.0
20260504043103 101 45 0.0 3.0 0.00 0.00 0.00 26 1008.9
20260504042516 101 0 0.0 2.0 0.00 0.00 0.00 27 1009.0
20260504041929 101 270 0.0 2.0 0.00 0.00 0.00 27 1009.1
20260504041342 100 270 0.0 2.0 0.00 0.00 0.00 27 1009.1
20260504040755 100 225 0.0 3.0 0.00 0.00 0.00 27 1009.1
20260504040208 100 0 0.0 3.0 0.00 0.00 0.00 27 1009.0
20260504035621 100 225 0.0 2.0 0.00 0.00 0.00 27 1009.2
20260504035034 100 270 0.0 3.0 0.00 0.00 0.00 27 1009.3
20260504034447 100 315 0.0 3.0 0.00 0.00 0.00 27 1009.6
20260504033900 100 135 0.0 3.0 0.00 0.00 0.00 27 1009.4
20260504033313 101 315 0.0 3.0 0.00 0.00 0.00 27 1009.5
20260504032726 101 0 0.0 2.0 0.00 0.00 0.00 27 1009.4
20260504032139 101 315 0.0 2.0 0.00 0.00 0.00 27 1009.5
20260504031552 101 225 0.0 3.0 0.00 0.00 0.00 27 1009.4
20260504031005 101 180 0.0 3.0 0.00 0.00 0.00 27 1009.3
20260504030418 101 270 0.0 3.0 0.00 0.00 0.00 28 1009.3
20260504025831 101 135 0.0 3.0 0.00 0.00 0.00 28 1009.4
20260504025244 101 0 0.0 2.0 0.00 0.00 0.00 29 1009.3
20260504024657 101 315 0.0 2.0 0.00 0.00 0.00 29 1009.3
20260504024110 100 270 0.0 2.0 0.00 0.00 0.00 29 1009.2
20260504023523 100 270 0.0 2.0 0.00 0.00 0.00 30 1009.2
20260504022936 99 315 0.0 2.0 0.00 0.00 0.00 30 1009.2
20260504022349 99 225 0.0 2.0 0.00 0.00 0.00 31 1009.1
20260504021802 98 0 0.0 2.0 0.00 0.00 0.00 32 1009.2
20260504021214 98 315 0.0 2.0 0.00 0.00 0.00 32 1009.0
20260504020627 97 315 0.0 2.0 0.00 0.00 0.00 32 1009.2
20260504020040 97 270 0.0 2.0 0.00 0.00 0.00 32 1009.2
20260504015453 96 135 0.0 3.0 0.00 0.00 0.00 32 1009.3
20260504014906 96 315 0.0 3.0 0.00 0.00 0.00 32 1009.4
20260504014319 96 0 0.0 3.0 0.00 0.00 0.00 32 1009.4
20260504013732 97 180 0.0 3.0 0.00 0.00 0.00 32 1009.3
20260504013145 97 270 0.0 3.0 0.00 0.00 0.00 32 1009.5
20260504012558 97 45 0.0 3.0 0.00 0.00 0.00 33 1009.3
20260504012011 97 225 0.0 3.0 0.00 0.00 0.00 33 1009.1
20260504011424 97 315 0.0 2.0 0.00 0.00 0.00 33 1009.1
20260504010837 97 225 0.0 2.0 0.00 0.00 0.00 34 1009.1
20260504010250 96 45 0.0 2.0 0.00 0.00 0.00 35 1009.2
20260504005703 96 270 0.0 2.0 0.00 0.00 0.00 35 1009.3
20260504005116 96 225 0.0 2.0 0.00 0.00 0.00 36 1009.3
20260504004529 96 45 0.0 2.0 0.00 0.00 0.00 36 1009.0
20260504003942 96 315 0.0 2.0 0.00 0.00 0.00 36 1009.2
20260504003355 96 45 0.0 3.0 0.00 0.00 0.00 37 1009.4
20260504002808 96 45 0.0 3.0 0.00 0.00 0.00 37 1009.1
20260504002221 96 270 0.0 3.0 0.00 0.00 0.00 38 1008.8
20260504001634 96 0 0.0 3.0 0.00 0.00 0.00 38 1008.6
20260504001047 96 315 0.0 2.0 0.00 0.00 0.00 39 1008.6
20260504000500 96 315 0.0 2.0 0.00 0.00 0.00 40 1008.3
20260503235913 96 225 0.0 2.0 0.00 0.00 0.00 42 1008.4
20260503235326 95 315 0.0 2.0 0.00 0.00 0.00 43 1008.4
20260503234739 95 225 0.0 2.0 0.00 0.00 0.00 44 1008.3
20260503234152 94 45 0.0 2.0 0.00 0.00 0.00 45 1008.2
20260503233605 93 0 0.0 2.0 0.00 0.00 0.00 46 1008.2
20260503233018 92 45 0.0 2.0 0.00 0.00 0.00 47 1008.1
20260503232431 91 315 0.0 2.0 0.00 0.00 0.00 48 1008.0
20260503231844 91 90 0.0 2.0 0.00 0.00 0.00 48 1008.0
20260503231257 91 0 0.0 1.0 0.00 0.00 0.00 47 1008.0
20260503230710 91 0 0.0 2.0 0.00 0.00 0.00 48 1008.3
20260503230123 91 315 0.0 2.0 0.00 0.00 0.00 49 1008.2
20260503225536 90 45 0.0 3.0 0.00 0.00 0.00 50 1008.2
20260503224949 90 0 0.0 3.0 0.00 0.00 0.00 50 1008.1
20260503224402 89 315 0.0 3.0 0.00 0.00 0.00 51 1008.2
20260503223814 89 0 0.0 3.0 0.00 0.00 0.00 51 1008.1
20260503223227 89 135 0.0 2.0 0.00 0.00 0.00 50 1008.1
20260503222640 88 45 0.0 2.0 0.00 0.00 0.00 50 1008.1
20260503222053 88 0 0.0 2.0 0.00 0.00 0.00 50 1008.1
20260503221506 88 315 0.0 1.0 0.00 0.00 0.00 50 1008.1
20260503220919 88 315 0.0 1.0 0.00 0.00 0.00 50 1008.1
20260503220332 88 45 0.0 1.0 0.00 0.00 0.00 50 1008.1
20260503215745 88 45 0.0 2.0 0.00 0.00 0.00 49 1008.3
20260503215158 88 90 0.0 2.0 0.00 0.00 0.00 49 1008.3
20260503214611 88 0 0.0 2.0 0.00 0.00 0.00 49 1008.3
20260503214024 88 270 0.0 1.0 0.00 0.00 0.00 49 1008.2
20260503213437 88 45 0.0 2.0 0.00 0.00 0.00 49 1008.2
20260503212850 88 135 0.0 2.0 0.00 0.00 0.00 49 1008.1
20260503212304 88 315 0.0 1.0 0.00 0.00 0.00 49 1008.0
20260503211716 89 315 0.0 2.0 0.00 0.00 0.00 49 1008.0
20260503211129 89 315 0.0 2.0 0.00 0.00 0.00 49 1008.1
20260503210542 89 45 0.0 2.0 0.00 0.00 0.00 49 1008.2
20260503205955 89 270 0.0 1.0 0.00 0.00 0.00 49 1008.1
20260503205408 89 45 0.0 2.0 0.00 0.00 0.00 49 1008.1
20260503204821 89 0 0.0 1.0 0.00 0.00 0.00 49 1008.0
20260503204234 89 315 0.0 1.0 0.00 0.00 0.00 49 1008.0
20260503203647 89 90 0.0 0.0 0.00 0.00 0.00 49 1008.1
20260503203100 89 0 0.0 1.0 0.00 0.00 0.00 49 1008.0
20260503202513 89 0 0.0 2.0 0.00 0.00 0.00 49 1008.0
20260503201926 89 270 0.0 2.0 0.00 0.00 0.00 49 1008.0
20260503201339 89 0 0.0 1.0 0.00 0.00 0.00 49 1008.2
20260503200752 89 315 0.0 1.0 0.00 0.00 0.00 49 1008.2
20260503200205 89 270 0.0 0.0 0.00 0.00 0.00 49 1008.0
20260503195618 89 0 0.0 1.0 0.00 0.00 0.00 49 1008.0
20260503195031 89 315 0.0 1.0 0.00 0.00 0.00 49 1007.8
20260503194444 89 90 0.0 2.0 0.00 0.00 0.00 50 1007.7
20260503193857 89 315 0.0 2.0 0.00 0.00 0.00 50 1007.8
20260503193310 89 0 0.0 1.0 0.00 0.00 0.00 50 1007.6
20260503192723 89 315 0.0 2.0 0.00 0.00 0.00 50 1007.6
20260503192136 89 315 0.0 2.0 0.00 0.00 0.00 50 1007.5
20260503191549 89 0 0.0 2.0 0.00 0.00 0.00 50 1007.6
20260503191001 90 315 0.0 1.0 0.00 0.00 0.00 50 1007.6
20260503190414 90 0 0.0 1.0 0.00 0.00 0.00 50 1007.6
20260503185827 90 315 0.0 1.0 0.00 0.00 0.00 50 1007.6
20260503185240 90 315 0.0 2.0 0.00 0.00 0.00 50 1007.6
20260503184653 90 315 0.0 2.0 0.00 0.00 0.00 50 1007.7
20260503184106 90 0 0.0 1.0 0.00 0.00 0.00 50 1007.7
20260503183519 90 315 0.0 1.0 0.00 0.00 0.00 50 1007.7
20260503182932 90 315 0.0 1.0 0.00 0.00 0.00 50 1007.6
20260503182345 90 45 0.0 1.0 0.00 0.00 0.00 50 1007.5
20260503181758 90 315 0.0 1.0 0.00 0.00 0.00 49 1007.6
20260503181211 90 270 0.0 0.0 0.00 0.00 0.00 49 1007.6
20260503180624 90 315 0.0 0.0 0.00 0.00 0.00 49 1007.6
20260503180037 90 315 0.0 2.0 0.00 0.00 0.00 49 1007.7
20260503175450 90 0 0.0 2.0 0.00 0.00 0.00 48 1007.7
20260503174903 90 315 0.0 2.0 0.00 0.00 0.00 48 1007.9
20260503174316 91 0 0.0 2.0 0.00 0.00 0.00 49 1007.8
20260503173729 91 0 0.0 0.0 0.00 0.00 0.00 49 1007.7
20260503173142 91 315 0.0 1.0 0.00 0.00 0.00 49 1007.8
20260503172555 91 315 0.0 1.0 0.00 0.00 0.00 49 1007.6
20260503172008 91 270 0.0 1.0 0.00 0.00 0.00 49 1007.9
20260503171421 91 45 0.0 2.0 0.00 0.00 0.00 50 1007.9
20260503170834 91 315 0.0 2.0 0.00 0.00 0.00 49 1007.8
20260503170247 91 0 0.0 2.0 0.00 0.00 0.00 49 1008.0
20260503150706 92 315 0.0 0.0 0.00 0.00 0.00 46 1007.7
20260503150119 92 315 0.0 0.0 0.00 0.00 0.00 46 1007.8
20260503131126 93 315 0.0 0.0 0.00 0.00 0.00 42 1006.5
20260503130539 94 315 0.0 0.0 0.00 0.00 0.00 42 1006.7
20260503120202 95 315 0.0 0.0 0.00 0.00 0.00 39 1006.6
20260503110411 97 45 0.0 1.0 0.00 0.00 0.00 36 1006.2